Location: Buchdorf
(48.7842°N, 10.8275°E)
Time: 12:56:59
(UTC+00:00)

COSMOS 2406 - Pass Details

Date: 09 April 2020
Orbit: 842 x 865 km, 71.0° (Epoch: 27 May)

Event Time Altitude Azimuth Distance (km) Brightness Sun altitude
Exits shadow 20:55:05 25° 214° (SW) 1,662 4.5 -25.1°
Maximum altitude 20:58:33 79° 298° (WNW) 871 3.2 -25.5°
Drops below altitude 10° 21:04:18 10° 26° (NNE) 2,494 5.9 -26.1°
Sets 21:06:47 0° 28° (NNE) 3,437 6.7 -26.3°
